EFOU Weather Reports


Display with metric or nautical units.
time (UTC)temp
F
wind
direction
speed
MPH
gust
MPH
rain 1hr
in
rain 24hr
in
rain mn
in
humidity
%
barometer
mb
20260507054722 41 218 9.0 12.0 0.00 0.00 0.00 72 1014.5
20260507052721 40 207 7.0 11.0 0.00 0.00 0.00 79 1014.5
20260507050721 38 184 5.0 7.0 0.00 0.00 0.00 81 1014.4
20260507044721 37 179 4.0 7.0 0.00 0.00 0.00 85 1014.3
20260507042721 36 185 5.0 9.0 0.00 0.00 0.00 85 1014.3
20260507040722 34 184 6.0 10.0 0.00 0.00 0.00 87 1014.3
20260507034721 32 179 6.0 9.0 0.00 0.00 0.00 89 1014.0
20260507032721 32 176 6.0 9.0 0.00 0.00 0.00 90 1013.9
20260507030721 31 172 4.0 5.0 0.00 0.00 0.00 90 1013.7
20260507025050 31 174 4.0 6.0 0.00 0.00 0.00 91 1013.6
20260507022721 30 168 7.0 10.0 0.00 0.00 0.00 92 1013.6
20260507020721 30 166 7.0 9.0 0.00 0.00 0.00 93 1013.7
20260507014720 30 171 5.0 8.0 0.00 0.00 0.00 92 1013.6
20260507012721 30 162 7.0 9.0 0.00 0.00 0.00 94 1013.4
20260507010721 30 170 6.0 10.0 0.00 0.00 0.00 94 1013.5
20260507004721 31 168 6.0 9.0 0.00 0.00 0.00 94 1013.4
20260507002721 31 165 7.0 11.0 0.00 0.00 0.00 93 1013.3
20260507000721 32 169 8.0 10.0 0.00 0.00 0.00 92 1013.2
20260506234720 31 169 7.0 10.0 0.00 0.00 0.00 95 1013.1
20260506232721 31 161 7.0 9.0 0.00 0.00 0.00 95 1013.1
20260506230721 31 154 5.0 7.0 0.00 0.00 0.00 95 1013.0
20260506224720 31 146 6.0 7.0 0.00 0.00 0.00 96 1012.9
20260506222721 31 151 5.0 6.0 0.00 0.00 0.00 94 1012.9
20260506220720 33 163 5.0 7.0 0.00 0.00 0.00 92 1013.0
20260506214720 34 170 5.0 7.0 0.00 0.00 0.00 92 1012.9
20260506212720 34 163 5.0 7.0 0.00 0.00 0.00 92 1012.8
20260506210720 34 153 5.0 6.0 0.00 0.00 0.00 90 1012.7
20260506204720 35 167 4.0 6.0 0.00 0.00 0.00 90 1012.8
20260506200720 34 132 3.0 4.0 0.00 0.00 0.00 90 1012.6
20260506194720 35 167 4.0 5.0 0.00 0.00 0.00 90 1012.5
20260506192719 37 179 3.0 4.0 0.00 0.00 0.00 84 1012.5
20260506190720 39 223 2.0 4.0 0.00 0.00 0.00 81 1012.4
20260506184719 39 266 4.0 6.0 0.00 0.00 0.00 80 1012.3
20260506182720 39 257 4.0 6.0 0.00 0.00 0.00 77 1012.0
20260506174719 40 294 6.0 9.0 0.00 0.00 0.00 82 1011.7
20260506172719 40 286 8.0 11.0 0.00 0.00 0.00 81 1011.5
20260506170719 40 285 9.0 12.0 0.00 0.00 0.00 79 1011.3
20260506164719 40 287 10.0 15.0 0.00 0.00 0.00 79 1011.1
20260506162719 41 285 10.0 14.0 0.00 0.00 0.00 76 1011.0
20260506160719 42 283 11.0 16.0 0.00 0.00 0.00 73 1010.8
20260506154719 42 263 9.0 16.0 0.00 0.00 0.00 74 1010.7
20260506152719 42 279 11.0 15.0 0.00 0.00 0.00 73 1010.6
20260506150719 42 280 12.0 15.0 0.00 0.00 0.00 74 1010.4
20260506144719 44 291 12.0 19.0 0.00 0.00 0.00 68 1010.1
20260506142718 43 322 10.0 19.0 0.00 0.00 0.00 63 1010.0
20260506140718 43 319 11.0 16.0 0.00 0.00 0.00 66 1009.9
20260506134718 42 311 12.0 15.0 0.00 0.00 0.00 66 1009.7
20260506132719 43 296 11.0 15.0 0.00 0.00 0.00 70 1009.4
20260506130718 41 303 10.0 14.0 0.00 0.00 0.00 76 1009.2
20260506124718 41 329 10.0 15.0 0.00 0.00 0.00 77 1009.0
20260506122718 41 331 9.0 12.0 0.00 0.00 0.00 78 1008.7
20260506120718 41 332 9.0 13.0 0.00 0.00 0.00 81 1008.6
20260506114718 40 313 8.0 13.0 0.00 0.00 0.00 84 1008.1
20260506112719 40 323 8.0 11.0 0.00 0.00 0.00 86 1007.9
20260506110718 40 320 8.0 11.0 0.00 0.00 0.00 86 1007.7
20260506104718 39 283 9.0 13.0 0.00 0.00 0.00 91 1007.4
20260506102718 39 292 9.0 13.0 0.00 0.00 0.00 90 1007.1
20260506100718 40 288 6.0 12.0 0.00 0.00 0.00 91 1006.8
20260506094718 39 285 8.0 14.0 0.00 0.00 0.00 91 1006.5
20260506092718 38 277 7.0 11.0 0.00 0.00 0.00 93 1006.2
20260506090718 37 285 8.0 11.0 0.00 0.00 0.00 93 1006.0
20260506084718 37 279 7.0 11.0 0.00 0.00 0.00 95 1005.8
20260506082718 37 284 7.0 11.0 0.00 0.00 0.00 94 1005.5
20260506080718 37 278 6.0 10.0 0.00 0.00 0.00 93 1005.2
20260506072718 36 264 7.0 11.0 0.00 0.00 0.00 91 1004.5
20260506070718 36 267 8.0 12.0 0.00 0.00 0.00 91 1004.2
20260506060717 37 279 11.0 17.0 0.00 0.00 0.00 94 1003.2